Other Public Products
Issued by NWS Grand Forks, ND

Home | Current Version | Previous Version | Text Only | Print | Product List | Glossary Off
Versions: 1 2 3 4 5 6 7 8 9 10 11 12 13 14 15 16 17 18 19 20 21 22 23 24 25 26 27 28 29 30 31 32 33 34 35 36 37 38 39 40 41 42 43 44 45 46 47 48 49 50

000
FPUS83 KFGF 291531
OPUFGF
PRAIRIE TO PINES WEATHER ROUNDUP
NATIONAL WEATHER SERVICE EASTERN NORTH DAKOTA/GRAND FORKS ND
1000 AM CDT FRI MAY 29 2015

 **SATELLITE DATA USED TO AUGMENT SKY COVER AT AUTOMATED STATIONS**
 *****  WEATHER ACROSS EASTERN NORTH DAKOTA  *****

CITY           SKY/WX    TMP DP  RH WIND       PRES   REMARKS
GRAND FORKS    CLOUDY    45  39  79 N29G35    30.13R
GRAND FORKS AF CLOUDY    45  36  70 N24G36    30.15R
GRAND CITY NWS   N/A     43 N/A N/A N29         N/A
BUXTON           N/A     44  42  91 N20G32      N/A
DEVILS LAKE    CLOUDY    45  30  57 N24G32    30.20R
FARGO          CLOUDY    48  42  80 N28G38    30.08R
WAHPETON ARPT  CLOUDY    46  43  87 N20G35    30.04R
$$

 *****  WEATHER ACROSS CENTRAL AND WESTERN NORTH DAKOTA  *****

CITY           SKY/WX    TMP DP  RH WIND       PRES   REMARKS
JAMESTOWN      CLOUDY    49  40  71 N25G35    30.13R
BISMARCK       CLOUDY    50  37  61 N22       30.21R
MINOT          CLOUDY    45  33  63 N18       30.26R
MINOT AFB      CLOUDY    45  40  83 N16G22    30.25R
GARRISON         N/A     47  35  63 N12G22    30.25R
WILLISTON      CLOUDY    47  32  56 N10       30.32R
DICKINSON      CLOUDY    45  33  63 N16       30.24R
HETTINGER      CLOUDY    45  39  79 N14       30.24R
$$

 *****  OTHER OBSERVATIONS NORTHEAST NORTH DAKOTA  *****

CITY           SKY/WX    TMP DP  RH WIND       PRES   REMARKS
WALHALLA         N/A     45  43  93 MISG      30.20R
LANGDON        CLOUDY    43  36  75 N22G31    30.19R
CAVALIER       NOT AVBL
GRAFTON        CLOUDY    43  37  81 N21G30    30.18R
CANDO          CLOUDY    45  36  70 N23       30.22R
FORT TOTTEN      N/A     46  37  70 N8        29.95S
ROLLA          CLOUDY    41  37  87 N24       30.23R
RUGBY          NOT AVBL
 ***** THE ABOVE OBSERVATIONS ARE NON NWS ARE NOT QUALITY
        CONTROLLED AND MAY MIS-REPORT RAIN FOR SNOW...
$$

 *****  OTHER OBSERVATIONS SOUTHEAST NORTH DAKOTA *****

CITY           SKY/WX    TMP DP  RH WIND       PRES   REMARKS
COOPERSTOWN    NOT AVBL
VALLEY CITY    CLOUDY    46  43  87 N23G29    30.13R
OAKES            N/A     48  46  93 N23G35    30.10R
GWINNER        NOT AVBL
SHEYENNE NWR     N/A     48  43  82 N16       29.95
BUFFALO        NOT AVBL
WYNDMERE         N/A     48  46  93 N17         N/A
 ***** THE ABOVE OBSERVATIONS ARE NON NWS ARE NOT QUALITY
       CONTROLLED AND MAY MIS-REPORT RAIN FOR SNOW...
$$

  *****  WEATHER ACROSS NORTHERN MINNESOTA  *****

CITY           SKY/WX    TMP DP  RH WIND       PRES   REMARKS
FLAG ISLAND    CLOUDY    46  41  81 NW30      30.05R
WARROAD        CLOUDY    46  41  81 NW16      30.08R
ROSEAU         CLOUDY    46  39  76 NW25      30.09R
HALLOCK        CLOUDY    43  37  81 N21       30.16R
THF RVR FALLS  CLOUDY    45  37  76 N17G26    30.10R
HALSTAD          N/A     45  39  81 N29         N/A
FOSSTON        CLOUDY    45  43  93 N18G25    30.07R
BAUDETTE       CLOUDY    47  42  83 N18G28    30.02R
WASKISH        CLOUDY    46  45  93 NW13G20   30.02R
CROOKSTON      CLOUDY    45  39  81 N21G30    30.13R
$$
  *****  WEATHER ACROSS CENTRAL AND WEST MINNESOTA  *****

CITY           SKY/WX    TMP DP  RH WIND       PRES   REMARKS
BEMIDJI        CLOUDY    48  46  92 N13G20    30.02R
PARK RAPIDS    CLOUDY    56  52  86 N15       29.96R
WADENA         CLOUDY    55  54  94 N15G21    29.96R
DETROIT LAKES  CLOUDY    50  46  87 N20G28    30.03R
MOORHEAD       CLOUDY    46  43  87 N32       30.08R
FERGUS FALLS   CLOUDY    52  52 100 N16G24    30.00R
ELBOW LAKE     RAIN      55  54  97 N18       29.97R
MORRIS MN      DRIZZLE   55  54  94 NW18G25   29.95R
STAPLES        DRIZZLE   57  55  94 N14G21    29.94R
WHEATON        LGT RAIN  46  45  93 N25G33    30.04R
$$
  *****  WEATHER ELSEWHERE ACROSS MINNESOTA  *****

CITY           SKY/WX    TMP DP  RH WIND       PRES   REMARKS
DULUTH         PTSUNNY   63  57  81 W7        29.87S
INTRNTL FALLS  CLOUDY    51  47  86 NW17      29.97R
ELY            NOT AVBL
CLOQUET        PTSUNNY   66  55  68 NW7       29.88S
BRAINERD       LGT RAIN  63  59  87 N9        29.93R
HIBBING        RAIN      60  58  92 N12       29.89S FOG
ALEXANDRIA     CLOUDY    60  58  92 N10       29.95R
SAINT CLOUD    CLOUDY    66  59  78 N7        29.89R
MINNEAPOLIS    CLOUDY    69  64  84 VRB7      29.89R
$$

  *****  WEATHER ACROSS SOUTH DAKOTA  *****

CITY           SKY/WX    TMP DP  RH WIND       PRES   REMARKS
SIOUX FALLS    LGT RAIN  65  62  90 CALM      29.90R
BROOKINGS      CLOUDY    61  57  88 N17       29.93R
WATERTOWN      CLOUDY    53  50  89 N22G29    29.98R
HURON            N/A    N/A N/A N/A MISG      29.96R
SISSETON         N/A     49  49 100 N23       30.02R
ABERDEEN       LGT RAIN  51  47  86 N21G31    30.08R
MITCHELL       LGT RAIN  64  62  93 N15       29.92R FOG
PIERRE         RAIN      52  51  97 N29G37    30.05R FOG
MOBRIDGE       CLOUDY    50  47  89 N17G32    30.13R
RAPID CITY     LGT RAIN  47  46  97 N26G33    30.19R FOG
$$

  *****  SOME WEATHER IN NEARBY STATES *****

CITY           SKY/WX    TMP DP  RH WIND       PRES   REMARKS
GLASGOW MT     SUNNY     46  32  58 NE7       30.35R
GREAT FALLS MT CLOUDY    47  43  86 E6        30.28S
CHEYENNE WY    CLOUDY    52  41  66 NW12G23   30.22R
SCOTTSBLUFF NE CLOUDY    57  52  83 NW8       30.16R
OMAHA NE       CLOUDY    69  63  81 S6        29.93S
DES MOINES IA  CLOUDY    70  63  78 SW8       29.95S
DAVENPORT IA   LGT RAIN  70  66  87 S12       29.98F
CHICAGO IL     PTSUNNY   77  64  64 S15       30.03F
EAU CLAIRE WI  CLOUDY    67  63  87 S8        29.90F
LA CROSSE WI   PTSUNNY   73  61  65 S9        29.93F
$$

  *****  SOME NATIONAL WEATHER *****

CITY           SKY/WX    TMP DP  RH WIND       PRES   REMARKS
LA GUARDIA NY  MOSUNNY   74  55  51 NE9       30.29F
RALEIGH NC     PTSUNNY   79  65  62 CALM      30.26S
ATLANTA GA     PTSUNNY   75  65  70 VRB5      30.24S
NEW ORLEANS LA MOSUNNY   83  70  64 SE8       30.08S
OKLAHOMA CITY  CLOUDY    69  63  81 W7        29.97S
ALBUQUERQUE NM PTSUNNY   68  38  33 N7        30.17R
SALT LAKE CITY MOSUNNY   60  44  55 SE3       30.20R
LOS ANGELES CA CLOUDY    59  56  89 E3        29.97R FOG
BOISE ID       MOSUNNY   66  46  48 SE13      30.11S
SEATTLE WA     PTSUNNY   58  53  84 S6        30.01R
$$

*** WEATHER ACROSS MANITOBA...SASKATCHEWAN AND ONTARIO ***
                ***ONTARIO***

CITY           SKY/WX    TMP DP  RH WIND       PRES   REMARKS
GERALDTON      PTSUNNY   68  57  68 SW10G20   29.81S
THUNDER BAY    LGT RAIN  52  46  82 NE5       29.84F
SIOUX LOOKOUT  DRIZZLE   50  48  93 NW12G18   29.93R FOG
TORONTO        CLOUDY    72  54  53 SE9       30.21F
BIG TROUT LK   CLOUDY    36  36 100 E10G21    30.01R
PICKLE LAKE    DRIZZLE   45  45 100 N6        29.90R FOG
DRYDEN         CLOUDY    46  45  93 NW8G21    29.96R
KENORA         PTSUNNY   43  37  81 N13G25    30.04R
$$
                *** MANITOBA***

CITY           SKY/WX    TMP DP  RH WIND       PRES   REMARKS
BRANDON        PTSUNNY   45  32  61 N16G24    30.27S
DAUPHIN        MOSUNNY   41  34  75 N17G28    30.32R
ISLAND LAKE    FLURRIES  32  30  93 N13G22    30.16R WCI  22
PILOT MOUND      N/A     41  34  75 N21G26      N/A
THE PAS        PTSUNNY   37  25  60 N14       30.38S
THOMPSON       FLURRIES  28  23  80 N13G21    30.36R WCI  18
WINNIPEG       PTSUNNY   43  34  70 N25G32    30.20R
LYNN LAKE      LGT RAIN  32  21  64 N10G18    30.41S WCI  24
CHURCHILL      FLURRIES  28  25  86 N7        30.41S WCI  21
GILLAM         SNOW      27  23  86 NE18      30.31R VSB 1/2 WCI  13
$$
                ***SASKATCHEWAN***

CITY           SKY/WX    TMP DP  RH WIND       PRES   REMARKS
ESTEVAN        CLOUDY    43  34  70 N15       30.32R
KINDERSLEY     MOSUNNY   46  32  57 S10       30.36F
LLOYDMINSTER   MOSUNNY   46  27  46 S8        30.37S
PRINCE ALBERT  MOSUNNY   41  25  52 E3        30.43S
REGINA         MOSUNNY   45  28  53 N12       30.36R


USA.gov is the U.S. government's official web portal to all federal, state and local government web resources and services.